FFT5543 KMCO-KCLT

Flight info

Callsign FFT5543
Flight time N/A
Altitude 39000
Route FATHE4 VIYAP CHECR STOCR4
Aircraft A20N/M-SDE2E3FGHIRWXY/LB1

Departure

Time 2026-05-05 01:36
Airport Orlando International Airport (KMCO)

Arrival

Time N/A
Airport Charlotte Douglas International Airport (KCLT)
Time Latitude Longitude Altitude Speed Heading
2026-05-05 01:15 28.42641 -81.31563 101 ft 0 kts 131°
2026-05-05 01:26 28.42645 -81.31569 101 ft 1 kts 130°
2026-05-05 01:26 28.42650 -81.31575 100 ft 1 kts 125°
2026-05-05 01:27 28.42655 -81.31583 100 ft 1 kts 123°
2026-05-05 01:27 28.42660 -81.31594 99 ft 2 kts 137°
2026-05-05 01:27 28.42670 -81.31603 100 ft 2 kts 141°
2026-05-05 01:27 28.42675 -81.31608 98 ft 0 kts 156°
2026-05-05 01:32 28.42665 -81.31604 99 ft 6 kts 171°
2026-05-05 01:32 28.42578 -81.31607 101 ft 17 kts 180°
2026-05-05 01:32 28.42448 -81.31632 103 ft 21 kts 206°
2026-05-05 01:32 28.42348 -81.31747 105 ft 21 kts 272°
2026-05-05 01:33 28.42274 -81.31841 107 ft 16 kts 185°
2026-05-05 01:33 28.42152 -81.31866 107 ft 20 kts 196°
2026-05-05 01:33 28.41995 -81.31879 102 ft 25 kts 180°
2026-05-05 01:33 28.41808 -81.31877 103 ft 30 kts 179°
2026-05-05 01:34 28.41699 -81.31876 101 ft 2 kts 178°
2026-05-05 01:34 28.41656 -81.31875 100 ft 10 kts 179°
2026-05-05 01:34 28.41573 -81.31888 99 ft 14 kts 207°
2026-05-05 01:34 28.41542 -81.31991 99 ft 16 kts 269°
2026-05-05 01:35 28.41543 -81.32133 101 ft 16 kts 270°
2026-05-05 01:35 28.41577 -81.32194 101 ft 10 kts 345°
2026-05-05 01:35 28.41712 -81.32198 100 ft 49 kts
2026-05-05 01:35 28.42387 -81.32203 110 ft 139 kts 359°
2026-05-05 01:36 28.43550 -81.32228 517 ft 179 kts
2026-05-05 01:36 28.44825 -81.32370 1510 ft 185 kts 358°
2026-05-05 01:36 28.46074 -81.32428 2781 ft 179 kts
2026-05-05 01:36 28.47339 -81.32398 3825 ft 186 kts
2026-05-05 01:37 28.48657 -81.32299 4935 ft 188 kts
2026-05-05 01:37 28.49980 -81.32132 5870 ft 196 kts
2026-05-05 01:37 28.51367 -81.31933 6561 ft 209 kts
2026-05-05 01:37 28.52821 -81.31714 7405 ft 211 kts
2026-05-05 01:38 28.54273 -81.31492 8310 ft 210 kts
2026-05-05 01:38 28.55720 -81.31275 8812 ft 203 kts
2026-05-05 01:38 28.57173 -81.30958 7942 ft 232 kts 14°